Aeroporto :
LOGIN :

Iscrizione | Disclaimer

   EN    FR    IT 

 










Sommario :    VFR   VFR Marginale   IFR   IFR Intensivo   IFR Molto Intensivo
Visibilità : 
Base nubi : 
>= 8 km
>= 3000ft
5 / 8 km
1000 / 3000 ft
1500m / 5 km
500 / 1000 ft
800 / 1500m
200 / 500 ft
< 800m
< 200 ft
Simboli :   Temporali  Nebbia  Neve Forte  Precipitazioni Forti  Vento > 20 kt
SIGMETs :   Varie  Temporali  Ghiacco  Turbolenza  Onda orograficha  Ceneri Vulcaniche






- Altitudine del aeroporto : 325 ft
- Codice IATA : POX


LFPT - Pontoise

ULTIMO METAR :
  • 250630Z AUTO 28008KT 9999 OVC041 08/04 Q1007

METARs OBSOLETI :
  • 250600Z AUTO 28010KT 9999 FEW029 OVC039 08/04 Q1007
  • 250530Z AUTO 29010KT 9999 BKN026 BKN031 BKN042 08/05 Q1008
  • 250500Z AUTO 28005KT 250V310 9999 FEW028 SCT033 BKN060 08/05 Q1008
  • 250430Z AUTO 30006KT 260V320 9999 FEW007 BKN033 BKN039 08/05 Q1008
  • 250400Z AUTO 32011KT 3700 -RA BR BKN006 OVC013 08/07 Q1008

TAF N/A
ATIS : +33 1 30 30 52 08



MetMap, La meteo Aeronautica in un colpo d'occhio ! - Copyright ORBIFLY Dicembre 2007 - Disclaimer

ORBIFLY MET'MAP TEAM :

Programmazione e sviluppo : Alexandra Zaïnal
Concezione : Baudouin d'Aumeries
Aiuto per la programmazione : Marc-Olivier Méhu
Supporto tecnico e logistico : Manuel Goepfert
Aiuto per la traduzione : Arnaldo La Scala

Contatto : metmap@orbifly.com




FONTI E CREDITI :

   NOAA